Time,TemperatureF,DewpointF,PressureIn,WindDirection,WindDirectionDegrees,WindSpeedMPH,WindSpeedGustMPH,Humidity,HourlyPrecipIn,Conditions,Clouds,dailyrainin,SoftwareType,DateUTC
2013-01-03 00:00:00,19.8,15.2,30.34,SW,233,8.0,9.0,82,0.00,,---,0.00,VWS V14.00,2013-01-03 05:00:00,
2013-01-03 00:07:00,19.8,15.2,30.33,WSW,247,5.0,10.0,82,0.00,,---,0.00,VWS V14.00,2013-01-03 05:07:00,
2013-01-03 00:15:00,19.8,15.2,30.33,SW,227,7.0,11.0,82,0.00,,---,0.00,VWS V14.00,2013-01-03 05:15:00,
2013-01-03 00:23:00,19.7,15.1,30.33,SW,227,8.0,11.0,82,0.00,,---,0.00,VWS V14.00,2013-01-03 05:23:00,
2013-01-03 00:30:00,19.7,15.1,30.33,SW,224,4.0,11.0,82,0.00,,---,0.00,VWS V14.00,2013-01-03 05:30:00,
2013-01-03 00:31:00,19.7,15.1,30.33,West,270,3.0,11.0,82,0.00,,---,0.00,VWS V14.00,2013-01-03 05:31:00,
2013-01-03 00:39:00,19.6,15.0,30.33,WSW,239,5.0,12.0,82,0.00,,---,0.00,VWS V14.00,2013-01-03 05:39:00,
2013-01-03 00:47:00,19.5,14.9,30.32,SW,221,6.0,12.0,82,0.00,,---,0.00,VWS V14.00,2013-01-03 05:47:00,
2013-01-03 00:55:00,19.4,14.8,30.32,SSW,207,5.0,12.0,82,0.00,,---,0.00,VWS V14.00,2013-01-03 05:55:00,
2013-01-03 01:03:00,19.3,14.7,30.32,SW,219,3.0,11.0,82,0.00,,---,0.00,VWS V14.00,2013-01-03 06:03:00,
2013-01-03 01:11:00,19.2,14.9,30.31,WSW,240,5.0,11.0,83,0.00,,---,0.00,VWS V14.00,2013-01-03 06:11:00,
2013-01-03 01:20:00,19.2,14.6,30.31,SW,219,5.0,11.0,82,0.00,,---,0.00,VWS V14.00,2013-01-03 06:20:00,
2013-01-03 01:28:00,19.1,14.5,30.31,WSW,252,6.0,11.0,82,0.00,,---,0.00,VWS V14.00,2013-01-03 06:28:00,
2013-01-03 01:36:00,19.1,14.5,30.31,SSW,202,7.0,8.0,82,0.00,,---,0.00,VWS V14.00,2013-01-03 06:36:00,
2013-01-03 01:44:00,19.1,14.8,30.31,SSW,209,6.0,8.0,83,0.00,,---,0.00,VWS V14.00,2013-01-03 06:44:00,
2013-01-03 01:52:00,19.0,14.4,30.31,SW,220,5.0,9.0,82,0.00,,---,0.00,VWS V14.00,2013-01-03 06:52:00,
2013-01-03 02:00:00,19.0,14.4,30.32,SW,222,4.0,10.0,82,0.00,,---,0.00,VWS V14.00,2013-01-03 07:00:00,
2013-01-03 02:08:00,19.0,14.4,30.32,SW,221,7.0,8.0,82,0.00,,---,0.00,VWS V14.00,2013-01-03 07:08:00,
2013-01-03 02:16:00,19.0,14.4,30.32,SW,234,4.0,9.0,82,0.00,,---,0.00,VWS V14.00,2013-01-03 07:16:00,
2013-01-03 02:24:00,19.0,14.4,30.32,SW,225,2.0,9.0,82,0.00,,---,0.00,VWS V14.00,2013-01-03 07:24:00,
2013-01-03 02:30:00,19.0,14.4,30.32,SW,225,3.0,9.0,82,0.00,,---,0.00,VWS V14.00,2013-01-03 07:30:00,
2013-01-03 02:40:00,19.0,14.4,30.32,SW,227,4.0,8.0,82,0.00,,---,0.00,VWS V14.00,2013-01-03 07:40:00,
2013-01-03 02:48:00,19.0,14.7,30.32,SW,225,6.0,8.0,83,0.00,,---,0.00,VWS V14.00,2013-01-03 07:48:00,
2013-01-03 02:56:00,18.9,14.3,30.32,SSW,207,4.0,8.0,82,0.00,,---,0.00,VWS V14.00,2013-01-03 07:56:00,
2013-01-03 03:04:00,19.0,14.4,30.32,SW,217,5.0,10.0,82,0.00,,---,0.00,VWS V14.00,2013-01-03 08:04:00,
2013-01-03 03:12:00,18.9,14.3,30.32,SW,224,5.0,11.0,82,0.00,,---,0.00,VWS V14.00,2013-01-03 08:12:00,
2013-01-03 03:20:00,18.9,14.3,30.32,SW,221,4.0,11.0,82,0.00,,---,0.00,VWS V14.00,2013-01-03 08:20:00,
2013-01-03 03:28:00,18.9,14.3,30.31,SW,227,8.0,11.0,82,0.00,,---,0.00,VWS V14.00,2013-01-03 08:28:00,
2013-01-03 03:36:00,18.9,14.3,30.31,SW,219,4.0,11.0,82,0.00,,---,0.00,VWS V14.00,2013-01-03 08:36:00,
2013-01-03 03:44:00,18.9,14.3,30.32,SW,230,5.0,12.0,82,0.00,,---,0.00,VWS V14.00,2013-01-03 08:44:00,
2013-01-03 03:52:00,18.8,14.2,30.31,SW,222,6.0,12.0,82,0.00,,---,0.00,VWS V14.00,2013-01-03 08:52:00,
2013-01-03 04:00:00,18.8,14.2,30.31,SW,223,4.0,12.0,82,0.00,,---,0.00,VWS V14.00,2013-01-03 09:00:00,
2013-01-03 04:08:00,18.8,14.2,30.31,SW,231,7.0,9.0,82,0.00,,---,0.00,VWS V14.00,2013-01-03 09:08:00,
2013-01-03 04:16:00,18.8,14.2,30.31,SW,229,10.0,12.0,82,0.00,,---,0.00,VWS V14.00,2013-01-03 09:16:00,
2013-01-03 04:24:00,18.7,13.9,30.31,SW,233,6.0,13.0,81,0.00,,---,0.00,VWS V14.00,2013-01-03 09:24:00,
2013-01-03 04:30:00,18.7,13.9,30.30,SSW,211,4.0,13.0,81,0.00,,---,0.00,VWS V14.00,2013-01-03 09:30:00,
2013-01-03 04:40:00,18.6,13.8,30.30,SW,215,7.0,11.0,81,0.00,,---,0.00,VWS V14.00,2013-01-03 09:40:00,
2013-01-03 04:48:00,18.6,13.8,30.30,SW,216,10.0,12.0,81,0.00,,---,0.00,VWS V14.00,2013-01-03 09:48:00,
2013-01-03 04:56:00,18.6,13.5,30.30,WSW,246,5.0,12.0,80,0.00,,---,0.00,VWS V14.00,2013-01-03 09:56:00,
2013-01-03 05:04:00,18.5,13.4,30.30,SW,228,6.0,9.0,80,0.00,,---,0.00,VWS V14.00,2013-01-03 10:04:00,
2013-01-03 05:12:00,18.5,13.4,30.30,SW,227,3.0,15.0,80,0.00,,---,0.00,VWS V14.00,2013-01-03 10:12:00,
2013-01-03 05:20:00,18.4,13.3,30.30,SW,228,4.0,15.0,80,0.00,,---,0.00,VWS V14.00,2013-01-03 10:20:00,
2013-01-03 05:28:00,18.4,13.3,30.30,SW,221,4.0,15.0,80,0.00,,---,0.00,VWS V14.00,2013-01-03 10:28:00,
2013-01-03 05:36:00,18.3,13.2,30.30,SW,234,6.0,9.0,80,0.00,,---,0.00,VWS V14.00,2013-01-03 10:36:00,
2013-01-03 05:44:00,18.2,13.1,30.30,West,275,6.0,13.0,80,0.00,,---,0.00,VWS V14.00,2013-01-03 10:44:00,
2013-01-03 05:52:00,18.2,13.1,30.30,SW,223,2.0,13.0,80,0.00,,---,0.00,VWS V14.00,2013-01-03 10:52:00,
2013-01-03 06:00:00,18.1,13.0,30.30,SW,216,0.0,13.0,80,0.00,,---,0.00,VWS V14.00,2013-01-03 11:00:00,
2013-01-03 06:08:00,18.1,13.0,30.30,SW,216,2.0,4.0,80,0.00,,---,0.00,VWS V14.00,2013-01-03 11:08:00,
2013-01-03 06:16:00,17.9,12.5,30.30,SW,227,1.0,9.0,79,0.00,,---,0.00,VWS V14.00,2013-01-03 11:16:00,
2013-01-03 06:24:00,17.8,12.4,30.31,NW,310,1.0,9.0,79,0.00,,---,0.00,VWS V14.00,2013-01-03 11:24:00,
2013-01-03 06:30:00,17.7,12.3,30.31,SSW,208,0.0,9.0,79,0.00,,---,0.00,VWS V14.00,2013-01-03 11:30:00,
2013-01-03 06:40:00,17.6,12.2,30.32,WSW,242,0.0,8.0,79,0.00,,---,0.00,VWS V14.00,2013-01-03 11:40:00,
2013-01-03 06:48:00,17.4,12.0,30.31,West,263,1.0,8.0,79,0.00,,---,0.00,VWS V14.00,2013-01-03 11:48:00,
2013-01-03 06:56:00,17.2,12.1,30.31,SW,226,1.0,8.0,80,0.00,,---,0.00,VWS V14.00,2013-01-03 11:56:00,
2013-01-03 07:04:00,17.0,11.9,30.31,WSW,242,0.0,7.0,80,0.00,,---,0.00,VWS V14.00,2013-01-03 12:04:00,
2013-01-03 07:12:00,16.8,11.7,30.31,SW,225,4.0,8.0,80,0.00,,---,0.00,VWS V14.00,2013-01-03 12:12:00,
2013-01-03 07:20:00,16.6,11.8,30.30,SSW,207,1.0,8.0,81,0.00,,---,0.00,VWS V14.00,2013-01-03 12:20:00,
2013-01-03 07:28:00,16.4,11.6,30.30,SSW,209,1.0,8.0,81,0.00,,---,0.00,VWS V14.00,2013-01-03 12:28:00,
2013-01-03 07:36:00,16.4,11.9,30.30,South,182,1.0,5.0,82,0.00,,---,0.00,VWS V14.00,2013-01-03 12:36:00,
2013-01-03 07:45:00,16.3,11.8,30.30,SSW,208,4.0,7.0,82,0.00,,---,0.00,VWS V14.00,2013-01-03 12:45:00,
2013-01-03 07:53:00,16.2,12.0,30.29,SSW,193,0.0,9.0,83,0.00,,---,0.00,VWS V14.00,2013-01-03 12:53:00,
2013-01-03 08:00:00,16.2,12.0,30.29,SSW,203,4.0,9.0,83,0.00,,---,0.00,VWS V14.00,2013-01-03 13:00:00,
2013-01-03 08:09:00,16.3,12.3,30.29,SSW,206,3.0,8.0,84,0.00,,---,0.00,VWS V14.00,2013-01-03 13:09:00,
2013-01-03 08:17:00,16.4,12.4,30.29,SW,234,6.0,8.0,84,0.00,,---,0.00,VWS V14.00,2013-01-03 13:17:00,
2013-01-03 08:25:00,16.5,12.8,30.29,SW,222,7.0,15.0,85,0.00,,---,0.00,VWS V14.00,2013-01-03 13:25:00,
2013-01-03 08:30:00,16.5,12.8,30.29,SW,226,4.0,15.0,85,0.00,,---,0.00,VWS V14.00,2013-01-03 13:30:00,
2013-01-03 08:41:00,16.5,12.8,30.29,SW,215,2.0,10.0,85,0.00,,---,0.00,VWS V14.00,2013-01-03 13:41:00,
2013-01-03 08:49:00,16.5,13.1,30.29,SSW,213,4.0,10.0,86,0.00,,---,0.00,VWS V14.00,2013-01-03 13:49:00,
2013-01-03 08:57:00,16.6,13.1,30.29,SW,218,3.0,11.0,86,0.00,,---,0.00,VWS V14.00,2013-01-03 13:57:00,
2013-01-03 09:05:00,16.6,13.1,30.29,SW,226,2.0,11.0,86,0.00,,---,0.00,VWS V14.00,2013-01-03 14:05:00,
2013-01-03 09:13:00,16.9,13.7,30.30,SW,217,5.0,11.0,87,0.00,,---,0.00,VWS V14.00,2013-01-03 14:13:00,
2013-01-03 09:21:00,16.8,13.6,30.30,SW,234,5.0,11.0,87,0.00,,---,0.00,VWS V14.00,2013-01-03 14:21:00,
2013-01-03 09:29:00,16.8,13.6,30.30,SW,217,7.0,11.0,87,0.00,,---,0.00,VWS V14.00,2013-01-03 14:29:00,
2013-01-03 09:37:00,17.0,13.8,30.30,SW,217,4.0,10.0,87,0.00,,---,0.00,VWS V14.00,2013-01-03 14:37:00,
2013-01-03 09:45:00,17.2,13.7,30.30,SW,228,2.0,10.0,86,0.00,,---,0.00,VWS V14.00,2013-01-03 14:45:00,
2013-01-03 09:53:00,17.4,13.7,30.30,SSW,209,2.0,10.0,85,0.00,,---,0.00,VWS V14.00,2013-01-03 14:53:00,
2013-01-03 10:00:00,17.6,13.3,30.29,South,191,5.0,10.0,83,0.00,,---,0.00,VWS V14.00,2013-01-03 15:00:00,
2013-01-03 10:09:00,18.0,13.4,30.30,South,175,5.0,13.0,82,0.00,,---,0.00,VWS V14.00,2013-01-03 15:09:00,
2013-01-03 10:17:00,18.5,15.8,30.30,SW,227,6.0,15.0,89,0.00,,---,0.00,VWS V14.00,2013-01-03 15:17:00,
2013-01-03 10:25:00,18.9,14.0,30.30,SSW,193,7.0,15.0,81,0.00,,---,0.00,VWS V14.00,2013-01-03 15:25:00,
2013-01-03 10:30:00,19.1,14.5,30.30,SSW,211,4.0,15.0,82,0.00,,---,0.00,VWS V14.00,2013-01-03 15:30:00,
2013-01-03 10:41:00,19.3,14.4,30.29,SW,219,7.0,9.0,81,0.00,,---,0.00,VWS V14.00,2013-01-03 15:41:00,
2013-01-03 10:49:00,19.9,15.3,30.29,SW,224,2.0,11.0,82,0.00,,---,0.00,VWS V14.00,2013-01-03 15:49:00,
2013-01-03 10:57:00,20.3,15.4,30.28,SSW,213,3.0,11.0,81,0.00,,---,0.00,VWS V14.00,2013-01-03 15:57:00,
2013-01-03 11:05:00,20.7,15.8,30.27,SSW,203,2.0,10.0,81,0.00,,---,0.00,VWS V14.00,2013-01-03 16:05:00,
2013-01-03 11:13:00,20.9,16.3,30.27,SSW,210,4.0,10.0,82,0.00,,---,0.00,VWS V14.00,2013-01-03 16:13:00,
2013-01-03 11:21:00,21.2,16.3,30.27,SW,225,3.0,13.0,81,0.00,,---,0.00,VWS V14.00,2013-01-03 16:21:00,
2013-01-03 11:29:00,22.0,17.1,30.27,SW,217,12.0,13.0,81,0.00,,---,0.00,VWS V14.00,2013-01-03 16:29:00,
2013-01-03 11:37:00,21.7,16.5,30.26,SW,216,4.0,13.0,80,0.00,,---,0.00,VWS V14.00,2013-01-03 16:37:00,
2013-01-03 11:45:00,22.1,16.9,30.26,SW,219,6.0,13.0,80,0.00,,---,0.00,VWS V14.00,2013-01-03 16:45:00,
2013-01-03 11:53:00,22.5,17.0,30.25,SW,229,4.0,13.0,79,0.00,,---,0.00,VWS V14.00,2013-01-03 16:53:00,
2013-01-03 12:00:00,22.6,16.8,30.24,WSW,238,7.0,13.0,78,0.00,,---,0.00,VWS V14.00,2013-01-03 17:00:00,
2013-01-03 12:09:00,22.4,16.3,30.23,SW,234,8.0,14.0,77,0.00,,---,0.00,VWS V14.00,2013-01-03 17:09:00,
2013-01-03 12:17:00,22.7,16.6,30.23,SSW,208,3.0,17.0,77,0.00,,---,0.00,VWS V14.00,2013-01-03 17:17:00,
2013-01-03 12:25:00,22.8,16.4,30.23,SW,217,5.0,17.0,76,0.00,,---,0.00,VWS V14.00,2013-01-03 17:25:00,
2013-01-03 12:33:00,23.1,16.4,30.22,South,182,5.0,7.0,75,0.00,,---,0.00,VWS V14.00,2013-01-03 17:33:00,
2013-01-03 12:41:00,23.5,16.8,30.21,SSW,213,8.0,17.0,75,0.00,,---,0.00,VWS V14.00,2013-01-03 17:41:00,
2013-01-03 12:49:00,23.8,16.7,30.21,SSW,205,15.0,17.0,74,0.00,,---,0.00,VWS V14.00,2013-01-03 17:49:00,
2013-01-03 12:57:00,24.2,17.1,30.21,SSW,213,3.0,17.0,74,0.00,,---,0.00,VWS V14.00,2013-01-03 17:57:00,
2013-01-03 13:05:00,24.4,17.0,30.21,West,261,4.0,10.0,73,0.00,,---,0.00,VWS V14.00,2013-01-03 18:05:00,
2013-01-03 13:13:00,24.4,17.3,30.20,WSW,243,11.0,17.0,74,0.00,,---,0.00,VWS V14.00,2013-01-03 18:13:00,
2013-01-03 13:21:00,24.4,17.6,30.20,SW,219,6.0,17.0,75,0.00,,---,0.00,VWS V14.00,2013-01-03 18:21:00,
2013-01-03 13:29:00,24.3,17.8,30.20,WSW,252,4.0,17.0,76,0.00,,---,0.00,VWS V14.00,2013-01-03 18:29:00,
2013-01-03 13:37:00,24.1,18.5,30.20,West,272,5.0,14.0,79,0.00,,---,0.00,VWS V14.00,2013-01-03 18:37:00,
2013-01-03 13:45:00,23.5,19.1,30.19,SW,223,5.0,17.0,83,0.00,,---,0.00,VWS V14.00,2013-01-03 18:45:00,
2013-01-03 13:53:00,23.1,19.3,30.19,WNW,298,4.0,17.0,85,0.00,,---,0.00,VWS V14.00,2013-01-03 18:53:00,
2013-01-03 14:00:00,23.2,19.1,30.19,SW,234,9.0,17.0,84,0.00,,---,0.00,VWS V14.00,2013-01-03 19:00:00,
2013-01-03 14:09:00,23.4,19.0,30.19,SW,219,8.0,13.0,83,0.00,,---,0.00,VWS V14.00,2013-01-03 19:09:00,
2013-01-03 14:17:00,23.5,19.1,30.19,West,259,7.0,14.0,83,0.00,,---,0.00,VWS V14.00,2013-01-03 19:17:00,
2013-01-03 14:58:00,24.1,19.1,30.19,WSW,237,10.0,14.0,81,0.00,,---,0.00,VWS V14.00,2013-01-03 19:58:00,
2013-01-03 15:06:00,24.1,19.1,30.19,SW,234,8.0,14.0,81,0.00,,---,0.00,VWS V14.00,2013-01-03 20:06:00,
2013-01-03 15:14:00,24.2,19.5,30.19,West,261,1.0,14.0,82,0.00,,---,0.00,VWS V14.00,2013-01-03 20:14:00,
2013-01-03 15:22:00,24.3,19.6,30.19,South,189,9.0,14.0,82,0.00,,---,0.00,VWS V14.00,2013-01-03 20:22:00,
2013-01-03 15:30:00,24.3,19.6,30.19,SSW,211,5.0,14.0,82,0.00,,---,0.00,VWS V14.00,2013-01-03 20:30:00,
2013-01-03 15:38:00,24.4,19.7,30.19,SW,220,9.0,14.0,82,0.00,,---,0.00,VWS V14.00,2013-01-03 20:38:00,
2013-01-03 15:46:00,24.6,19.9,30.19,WSW,238,7.0,16.0,82,0.00,,---,0.00,VWS V14.00,2013-01-03 20:46:00,
2013-01-03 15:54:00,24.8,20.1,30.20,SW,216,13.0,17.0,82,0.00,,---,0.00,VWS V14.00,2013-01-03 20:54:00,
2013-01-03 16:00:00,24.8,19.8,30.20,WNW,294,3.0,17.0,81,0.00,,---,0.00,VWS V14.00,2013-01-03 21:00:00,
2013-01-03 16:10:00,24.8,19.8,30.20,West,259,7.0,13.0,81,0.00,,---,0.00,VWS V14.00,2013-01-03 21:10:00,
2013-01-03 16:18:00,24.9,20.2,30.21,WNW,292,2.0,13.0,82,0.00,,---,0.00,VWS V14.00,2013-01-03 21:18:00,
2013-01-03 16:26:00,24.9,20.2,30.20,NW,315,8.0,13.0,82,0.00,,---,0.00,VWS V14.00,2013-01-03 21:26:00,
2013-01-03 16:34:00,24.9,20.2,30.21,WNW,291,5.0,15.0,82,0.00,,---,0.00,VWS V14.00,2013-01-03 21:34:00,
2013-01-03 16:42:00,25.0,20.3,30.21,SSW,211,11.0,15.0,82,0.00,,---,0.00,VWS V14.00,2013-01-03 21:42:00,
2013-01-03 16:50:00,25.1,20.4,30.21,WNW,287,1.0,15.0,82,0.00,,---,0.00,VWS V14.00,2013-01-03 21:50:00,
2013-01-03 16:58:00,25.2,20.5,30.21,WSW,240,4.0,15.0,82,0.00,,---,0.00,VWS V14.00,2013-01-03 21:58:00,
2013-01-03 17:06:00,25.2,20.5,30.21,WNW,302,2.0,11.0,82,0.00,,---,0.00,VWS V14.00,2013-01-03 22:06:00,
2013-01-03 17:14:00,25.3,20.6,30.22,West,264,4.0,11.0,82,0.00,,---,0.00,VWS V14.00,2013-01-03 22:14:00,
2013-01-03 17:22:00,25.3,20.6,30.22,WNW,300,6.0,12.0,82,0.00,,---,0.00,VWS V14.00,2013-01-03 22:22:00,
2013-01-03 17:30:00,25.4,20.4,30.22,NW,307,4.0,12.0,81,0.00,,---,0.00,VWS V14.00,2013-01-03 22:30:00,
2013-01-03 17:38:00,25.5,20.5,30.22,WSW,244,5.0,12.0,81,0.00,,---,0.00,VWS V14.00,2013-01-03 22:38:00,
2013-01-03 17:46:00,25.5,20.5,30.23,West,263,3.0,12.0,81,0.00,,---,0.00,VWS V14.00,2013-01-03 22:46:00,
2013-01-03 17:54:00,25.4,20.4,30.23,WSW,242,3.0,12.0,81,0.00,,---,0.00,VWS V14.00,2013-01-03 22:54:00,
2013-01-03 18:00:00,25.5,20.5,30.23,SW,217,9.0,12.0,81,0.00,,---,0.00,VWS V14.00,2013-01-03 23:00:00,
2013-01-03 18:11:00,25.5,20.8,30.23,SSW,200,4.0,14.0,82,0.00,,---,0.00,VWS V14.00,2013-01-03 23:11:00,
2013-01-03 18:19:00,25.5,20.8,30.23,West,265,13.0,18.0,82,0.00,,---,0.00,VWS V14.00,2013-01-03 23:19:00,
2013-01-03 18:27:00,25.5,20.8,30.23,SW,217,9.0,18.0,82,0.00,,---,0.00,VWS V14.00,2013-01-03 23:27:00,
2013-01-03 18:35:00,25.4,21.0,30.23,SW,217,8.0,12.0,83,0.00,,---,0.00,VWS V14.00,2013-01-03 23:35:00,
2013-01-03 18:43:00,25.4,21.2,30.23,WNW,296,9.0,12.0,84,0.00,,---,0.00,VWS V14.00,2013-01-03 23:43:00,
2013-01-03 18:51:00,25.3,21.1,30.23,SW,222,8.0,12.0,84,0.00,,---,0.00,VWS V14.00,2013-01-03 23:51:00,
2013-01-03 18:59:00,25.4,21.5,30.23,West,260,6.0,13.0,85,0.00,,---,0.00,VWS V14.00,2013-01-03 23:59:00,
2013-01-03 19:07:00,25.4,21.5,30.23,West,265,6.0,12.0,85,0.00,,---,0.00,VWS V14.00,2013-01-04 00:07:00,
2013-01-03 19:15:00,25.4,21.5,30.24,West,272,6.0,12.0,85,0.00,,---,0.00,VWS V14.00,2013-01-04 00:15:00,
2013-01-03 19:23:00,25.5,21.9,30.24,WNW,301,6.0,12.0,86,0.00,,---,0.00,VWS V14.00,2013-01-04 00:23:00,
2013-01-03 19:30:00,25.5,22.2,30.24,WSW,239,10.0,12.0,87,0.00,,---,0.00,VWS V14.00,2013-01-04 00:30:00,
2013-01-03 19:39:00,25.4,22.1,30.24,SW,230,7.0,11.0,87,0.00,,---,0.00,VWS V14.00,2013-01-04 00:39:00,
2013-01-03 19:47:00,25.4,22.4,30.24,SW,228,4.0,11.0,88,0.00,,---,0.00,VWS V14.00,2013-01-04 00:47:00,
2013-01-03 19:55:00,25.5,22.5,30.24,SW,225,3.0,11.0,88,0.00,,---,0.00,VWS V14.00,2013-01-04 00:55:00,
2013-01-03 20:00:00,25.6,22.5,30.24,SW,233,4.0,11.0,88,0.00,,---,0.00,VWS V14.00,2013-01-04 01:00:00,
2013-01-03 20:11:00,25.8,22.7,30.24,WSW,240,2.0,14.0,88,0.00,,---,0.00,VWS V14.00,2013-01-04 01:11:00,
2013-01-03 20:19:00,25.9,23.1,30.24,WSW,249,5.0,15.0,89,0.00,,---,0.00,VWS V14.00,2013-01-04 01:19:00,
2013-01-03 20:27:00,26.0,22.9,30.23,WSW,244,5.0,20.0,88,0.00,,---,0.00,VWS V14.00,2013-01-04 01:27:00,
2013-01-03 20:35:00,26.0,22.9,30.24,West,262,6.0,13.0,88,0.00,,---,0.00,VWS V14.00,2013-01-04 01:35:00,
2013-01-03 20:43:00,26.0,22.9,30.24,West,267,10.0,15.0,88,0.00,,---,0.00,VWS V14.00,2013-01-04 01:43:00,
2013-01-03 20:51:00,26.1,23.0,30.24,West,274,8.0,15.0,88,0.00,,---,0.00,VWS V14.00,2013-01-04 01:51:00,
2013-01-03 20:59:00,26.1,23.0,30.24,WNW,288,4.0,18.0,88,0.00,,---,0.00,VWS V14.00,2013-01-04 01:59:00,
2013-01-03 21:07:00,26.0,22.9,30.24,SW,229,2.0,13.0,88,0.00,,---,0.00,VWS V14.00,2013-01-04 02:07:00,
2013-01-03 21:15:00,26.0,22.9,30.24,SW,234,4.0,13.0,88,0.00,,---,0.00,VWS V14.00,2013-01-04 02:15:00,
2013-01-03 21:23:00,26.0,22.9,30.24,SW,230,7.0,13.0,88,0.00,,---,0.00,VWS V14.00,2013-01-04 02:23:00,
2013-01-03 21:30:00,26.0,22.9,30.24,WSW,257,5.0,13.0,88,0.00,,---,0.00,VWS V14.00,2013-01-04 02:30:00,
2013-01-03 21:39:00,26.0,22.9,30.24,WNW,300,7.0,14.0,88,0.00,,---,0.00,VWS V14.00,2013-01-04 02:39:00,
2013-01-03 21:47:00,25.9,22.8,30.24,West,267,7.0,14.0,88,0.00,,---,0.00,VWS V14.00,2013-01-04 02:47:00,
2013-01-03 21:55:00,25.9,22.8,30.24,WNW,285,3.0,18.0,88,0.00,,---,0.00,VWS V14.00,2013-01-04 02:55:00,
2013-01-03 22:00:00,25.9,22.8,30.24,WNW,290,2.0,20.0,88,0.00,,---,0.00,VWS V14.00,2013-01-04 03:00:00,
2013-01-03 22:11:00,26.0,22.9,30.24,West,279,7.0,14.0,88,0.00,,---,0.00,VWS V14.00,2013-01-04 03:11:00,
2013-01-03 22:19:00,25.9,22.8,30.24,NW,317,5.0,14.0,88,0.00,,---,0.00,VWS V14.00,2013-01-04 03:19:00,
2013-01-03 22:27:00,25.9,22.8,30.24,SSW,211,1.0,14.0,88,0.00,,---,0.00,VWS V14.00,2013-01-04 03:27:00,
2013-01-03 22:35:00,25.9,23.1,30.24,West,271,3.0,9.0,89,0.00,,---,0.00,VWS V14.00,2013-01-04 03:35:00,
2013-01-03 22:43:00,25.9,22.8,30.24,SW,231,9.0,12.0,88,0.00,,---,0.00,VWS V14.00,2013-01-04 03:43:00,
2013-01-03 22:51:00,26.0,22.9,30.24,West,267,1.0,12.0,88,0.00,,---,0.00,VWS V14.00,2013-01-04 03:51:00,
2013-01-03 22:59:00,26.0,22.9,30.25,West,269,11.0,12.0,88,0.00,,---,0.00,VWS V14.00,2013-01-04 03:59:00,
2013-01-03 23:07:00,26.0,22.9,30.24,NW,304,4.0,12.0,88,0.00,,---,0.00,VWS V14.00,2013-01-04 04:07:00,
2013-01-03 23:15:00,26.0,22.9,30.24,WSW,250,6.0,13.0,88,0.00,,---,0.00,VWS V14.00,2013-01-04 04:15:00,
2013-01-03 23:23:00,26.1,23.0,30.24,SSW,203,2.0,13.0,88,0.00,,---,0.00,VWS V14.00,2013-01-04 04:23:00,
2013-01-03 23:30:00,26.1,23.0,30.24,SW,222,6.0,13.0,88,0.00,,---,0.00,VWS V14.00,2013-01-04 04:30:00,
2013-01-03 23:39:00,26.1,22.8,30.24,SW,222,10.0,12.0,87,0.00,,---,0.00,VWS V14.00,2013-01-04 04:39:00,
2013-01-03 23:47:00,26.1,22.8,30.24,SW,219,6.0,12.0,87,0.00,,---,0.00,VWS V14.00,2013-01-04 04:47:00,
2013-01-03 23:55:00,26.1,22.8,30.24,WSW,256,4.0,13.0,87,0.00,,---,0.00,VWS V14.00,2013-01-04 04:55:00,